| time (UTC) | temp F | wind direction | speed MPH | gust MPH | rain 1hr in | rain 24hr in | rain mn in | humidity % | barometer mb |
| 20260509032222 | 54 | 90 | 0.0 | 0.0 | 0.00 | 0.01 | 0.01 | 86 | 1009.5 |
| 20260509031221 | 54 | 202 | 0.0 | 0.0 | 0.00 | 0.01 | 0.01 | 86 | 1009.5 |
| 20260509030221 | 54 | 319 | 0.0 | 0.0 | 0.00 | 0.01 | 0.01 | 87 | 1009.5 |
| 20260509025222 | 54 | 360 | 0.0 | 0.0 | 0.00 | 0.01 | 0.01 | 87 | 1009.5 |
| 20260509024222 | 54 | 270 | 0.0 | 0.0 | 0.00 | 0.01 | 0.01 | 88 | 1009.5 |
| 20260509023222 | 54 | 270 | 0.0 | 0.0 | 0.00 | 0.01 | 0.01 | 88 | 1009.5 |
| 20260509022222 | 54 | 270 | 0.0 | 0.0 | 0.00 | 0.01 | 0.01 | 88 | 1009.5 |
| 20260509021224 | 53 | 270 | 0.0 | 0.0 | 0.00 | 0.01 | 0.01 | 85 | 1009.5 |
| 20260509020321 | 54 | 270 | 0.0 | 0.0 | 0.00 | 0.01 | 0.01 | 86 | 1009.5 |
| 20260509015322 | 54 | 270 | 0.0 | 0.0 | 0.00 | 0.01 | 0.01 | 84 | 1009.5 |
| 20260509014323 | 55 | 270 | 0.0 | 0.0 | 0.00 | 0.01 | 0.01 | 83 | 1009.5 |
| 20260509013323 | 55 | 270 | 0.0 | 0.0 | 0.00 | 0.01 | 0.01 | 80 | 1009.5 |
| 20260509012421 | 55 | 270 | 0.0 | 0.0 | 0.00 | 0.01 | 0.01 | 79 | 1009.5 |
| 20260509010421 | 57 | 270 | 0.0 | 0.0 | 0.00 | 0.01 | 0.01 | 77 | 1009.5 |
| 20260509005420 | 57 | 270 | 0.0 | 0.0 | 0.00 | 0.01 | 0.01 | 73 | 1009.2 |
| 20260509004421 | 58 | 270 | 0.0 | 0.0 | 0.00 | 0.04 | 0.01 | 71 | 1009.2 |
| 20260509002421 | 60 | 270 | 0.0 | 0.0 | 0.00 | 0.09 | 0.01 | 70 | 1008.9 |
| 20260509001423 | 61 | 270 | 0.0 | 0.0 | 0.00 | 0.12 | 0.01 | 69 | 1008.9 |
| 20260509000422 | 62 | 270 | 0.0 | 0.0 | 0.00 | 0.12 | 0.01 | 69 | 1009.2 |
| 20260508235322 | 62 | 270 | 0.0 | 0.0 | 0.00 | 0.12 | 0.01 | 69 | 1009.2 |
| 20260508234420 | 62 | 337 | 0.0 | 0.0 | 0.00 | 0.12 | 0.01 | 69 | 1009.2 |
| 20260508233422 | 61 | 315 | 0.0 | 0.0 | 0.00 | 0.12 | 0.01 | 68 | 1009.2 |
| 20260508232422 | 62 | 180 | 0.0 | 2.0 | 0.00 | 0.12 | 0.01 | 67 | 1009.4 |
| 20260508231521 | 62 | 180 | 0.0 | 0.0 | 0.00 | 0.12 | 0.01 | 66 | 1009.2 |
| 20260508230521 | 64 | 180 | 2.0 | 4.0 | 0.00 | 0.12 | 0.01 | 63 | 1009.5 |
| 20260508225620 | 65 | 270 | 0.0 | 0.0 | 0.00 | 0.12 | 0.01 | 62 | 1009.2 |
| 20260508223720 | 65 | 316 | 1.0 | 3.0 | 0.00 | 0.12 | 0.01 | 62 | 1009.2 |
| 20260508222722 | 64 | 22 | 0.0 | 0.0 | 0.00 | 0.12 | 0.01 | 63 | 1009.5 |
| 20260508222622 | 64 | 22 | 0.0 | 0.0 | 0.00 | 0.12 | 0.01 | 63 | 1009.2 |
| 20260508221719 | 64 | 281 | 0.0 | 3.0 | 0.00 | 0.12 | 0.01 | 61 | 1009.5 |
| 20260508214822 | 65 | 221 | 2.0 | 3.0 | 0.00 | 0.12 | 0.01 | 64 | 1009.2 |
| 20260508213822 | 64 | 247 | 0.0 | 2.0 | 0.00 | 0.12 | 0.01 | 66 | 1009.5 |
| 20260508212722 | 63 | 247 | 0.0 | 2.0 | 0.00 | 0.12 | 0.01 | 65 | 1009.5 |
| 20260508210721 | 64 | 202 | 1.0 | 4.0 | 0.00 | 0.12 | 0.01 | 63 | 1009.5 |
| 20260508205722 | 65 | 263 | 0.0 | 2.0 | 0.00 | 0.12 | 0.01 | 60 | 1009.5 |
| 20260508204723 | 66 | 241 | 1.0 | 4.0 | 0.00 | 0.12 | 0.01 | 58 | 1009.9 |
| 20260508203819 | 65 | 290 | 0.0 | 3.0 | 0.00 | 0.12 | 0.01 | 59 | 1009.9 |
| 20260508202823 | 65 | 233 | 0.0 | 3.0 | 0.00 | 0.12 | 0.01 | 58 | 1009.9 |
| 20260508200821 | 66 | 208 | 1.0 | 3.0 | 0.00 | 0.12 | 0.01 | 56 | 1010.2 |
| 20260508195820 | 66 | 194 | 2.0 | 5.0 | 0.00 | 0.12 | 0.01 | 58 | 1010.2 |
| 20260508193822 | 64 | 241 | 1.0 | 4.0 | 0.00 | 0.12 | 0.01 | 60 | 1010.6 |
| 20260508192824 | 64 | 227 | 2.0 | 7.0 | 0.00 | 0.12 | 0.01 | 61 | 1010.6 |
| 20260508191821 | 64 | 229 | 2.0 | 4.0 | 0.00 | 0.12 | 0.01 | 63 | 1010.9 |
| 20260508190821 | 64 | 197 | 2.0 | 3.0 | 0.00 | 0.12 | 0.01 | 64 | 1010.9 |
| 20260508185920 | 64 | 169 | 0.0 | 2.0 | 0.00 | 0.12 | 0.01 | 64 | 1011.3 |
| 20260508184921 | 64 | 233 | 1.0 | 4.0 | 0.00 | 0.12 | 0.01 | 64 | 1011.3 |
| 20260508183922 | 64 | 241 | 2.0 | 5.0 | 0.00 | 0.12 | 0.01 | 64 | 1011.6 |
| 20260508182920 | 65 | 180 | 2.0 | 4.0 | 0.00 | 0.12 | 0.01 | 64 | 1011.6 |
| 20260508181921 | 65 | 239 | 1.0 | 3.0 | 0.00 | 0.12 | 0.01 | 62 | 1011.6 |
| 20260508181020 | 65 | 204 | 1.0 | 4.0 | 0.00 | 0.12 | 0.01 | 60 | 1011.6 |
| 20260508180020 | 65 | 205 | 2.0 | 4.0 | 0.00 | 0.12 | 0.01 | 60 | 1012.0 |
| 20260508175021 | 65 | 188 | 2.0 | 5.0 | 0.00 | 0.12 | 0.01 | 59 | 1011.9 |
| 20260508174022 | 65 | 90 | 0.0 | 1.0 | 0.00 | 0.12 | 0.01 | 58 | 1012.0 |
| 20260508173121 | 66 | 199 | 2.0 | 4.0 | 0.00 | 0.12 | 0.01 | 57 | 1012.0 |
| 20260508172124 | 67 | 258 | 1.0 | 4.0 | 0.00 | 0.12 | 0.01 | 56 | 1012.3 |
| 20260508171121 | 67 | 226 | 2.0 | 4.0 | 0.00 | 0.12 | 0.01 | 55 | 1012.3 |
| 20260508170121 | 65 | 180 | 0.0 | 0.0 | 0.00 | 0.12 | 0.01 | 54 | 1012.6 |
| 20260508165122 | 65 | 157 | 1.0 | 2.0 | 0.00 | 0.12 | 0.01 | 56 | 1012.7 |
| 20260508164121 | 64 | 225 | 2.0 | 5.0 | 0.00 | 0.12 | 0.01 | 60 | 1012.7 |
| 20260508163123 | 64 | 225 | 1.0 | 3.0 | 0.00 | 0.12 | 0.01 | 64 | 1013.0 |
| 20260508162122 | 63 | 196 | 3.0 | 6.0 | 0.00 | 0.12 | 0.01 | 70 | 1013.0 |
| 20260508161123 | 62 | 160 | 1.0 | 5.0 | 0.00 | 0.12 | 0.01 | 77 | 1013.4 |
| 20260508160220 | 61 | 172 | 1.0 | 3.0 | 0.00 | 0.12 | 0.01 | 84 | 1013.4 |
| 20260508160121 | 61 | 244 | 1.0 | 3.0 | 0.00 | 0.12 | 0.01 | 84 | 1013.4 |
| 20260508155122 | 59 | 148 | 1.0 | 4.0 | 0.00 | 0.12 | 0.01 | 88 | 1013.4 |
| 20260508154122 | 58 | 174 | 1.0 | 2.0 | 0.00 | 0.12 | 0.01 | 92 | 1013.4 |
| 20260508152120 | 56 | 187 | 2.0 | 5.0 | 0.00 | 0.12 | 0.01 | 96 | 1013.4 |
| 20260508151123 | 56 | 343 | 0.0 | 2.0 | 0.00 | 0.12 | 0.01 | 97 | 1013.4 |
| 20260508150219 | 56 | 287 | 0.0 | 3.0 | 0.00 | 0.12 | 0.01 | 98 | 1013.4 |
| 20260508144221 | 54 | 65 | 0.0 | 0.0 | 0.00 | 0.12 | 0.01 | 98 | 1013.4 |
| 20260508142221 | 53 | 270 | 0.0 | 1.0 | 0.00 | 0.12 | 0.01 | 99 | 1013.7 |
| 20260508141320 | 52 | 308 | 0.0 | 3.0 | 0.00 | 0.12 | 0.01 | 99 | 1013.7 |
| 20260508140322 | 51 | 183 | 2.0 | 5.0 | 0.00 | 0.12 | 0.01 | 100 | 1014.0 |
| 20260508134420 | 50 | 202 | 0.0 | 2.0 | 0.00 | 0.12 | 0.01 | 100 | 1014.0 |
| 20260508134321 | 50 | 214 | 1.0 | 4.0 | 0.00 | 0.12 | 0.01 | 100 | 1014.0 |
| 20260508133420 | 49 | 315 | 0.0 | 0.0 | 0.00 | 0.12 | 0.01 | 100 | 1014.0 |
| 20260508132420 | 49 | 315 | 0.0 | 1.0 | 0.00 | 0.12 | 0.01 | 100 | 1014.0 |
| 20260508131519 | 48 | 315 | 0.0 | 0.0 | 0.00 | 0.12 | 0.01 | 100 | 1014.0 |
| 20260508131420 | 48 | 315 | 0.0 | 0.0 | 0.00 | 0.12 | 0.01 | 100 | 1014.0 |
| 20260508130421 | 48 | 315 | 0.0 | 0.0 | 0.00 | 0.12 | 0.01 | 100 | 1014.0 |
| 20260508125421 | 47 | 315 | 0.0 | 0.0 | 0.00 | 0.12 | 0.01 | 100 | 1014.0 |
| 20260508123520 | 47 | 202 | 0.0 | 0.0 | 0.00 | 0.12 | 0.01 | 100 | 1013.7 |
| 20260508123419 | 46 | 202 | 0.0 | 1.0 | 0.00 | 0.12 | 0.01 | 100 | 1013.7 |
| 20260508122421 | 46 | 202 | 0.0 | 0.0 | 0.00 | 0.12 | 0.01 | 100 | 1013.7 |
| 20260508121421 | 45 | 202 | 0.0 | 1.0 | 0.00 | 0.12 | 0.01 | 100 | 1013.7 |
| 20260508120421 | 45 | 202 | 0.0 | 0.0 | 0.00 | 0.12 | 0.01 | 100 | 1013.7 |
| 20260508115422 | 44 | 202 | 0.0 | 0.0 | 0.00 | 0.12 | 0.01 | 100 | 1013.6 |
| 20260508114421 | 44 | 202 | 0.0 | 0.0 | 0.00 | 0.12 | 0.01 | 100 | 1013.6 |
| 20260508113422 | 43 | 202 | 0.0 | 0.0 | 0.00 | 0.12 | 0.01 | 100 | 1013.4 |
| 20260508112519 | 43 | 202 | 0.0 | 0.0 | 0.00 | 0.12 | 0.01 | 100 | 1013.4 |
| 20260508110521 | 41 | 202 | 0.0 | 0.0 | 0.00 | 0.12 | 0.01 | 100 | 1013.0 |
| 20260508105521 | 41 | 202 | 0.0 | 0.0 | 0.00 | 0.12 | 0.01 | 100 | 1013.0 |
| 20260508104521 | 41 | 202 | 0.0 | 0.0 | 0.00 | 0.12 | 0.01 | 100 | 1013.0 |
| 20260508103521 | 41 | 22 | 0.0 | 0.0 | 0.00 | 0.12 | 0.01 | 100 | 1013.0 |
| 20260508102520 | 41 | 22 | 0.0 | 0.0 | 0.00 | 0.12 | 0.01 | 100 | 1013.0 |
| 20260508101522 | 41 | 22 | 0.0 | 0.0 | 0.00 | 0.12 | 0.01 | 100 | 1013.3 |
| 20260508100521 | 41 | 22 | 0.0 | 0.0 | 0.00 | 0.12 | 0.01 | 100 | 1012.9 |
| 20260508094521 | 41 | 22 | 0.0 | 0.0 | 0.01 | 0.12 | 0.01 | 100 | 1013.0 |
| 20260508093521 | 40 | 360 | 0.0 | 0.0 | 0.01 | 0.12 | 0.01 | 100 | 1013.0 |
| 20260508092523 | 40 | 360 | 0.0 | 0.0 | 0.01 | 0.12 | 0.01 | 100 | 1013.0 |
| 20260508091523 | 40 | 360 | 0.0 | 0.0 | 0.01 | 0.12 | 0.01 | 100 | 1013.0 |
| 20260508090523 | 40 | 360 | 0.0 | 0.0 | 0.01 | 0.12 | 0.01 | 100 | 1013.0 |
| 20260508085521 | 40 | 360 | 0.0 | 0.0 | 0.01 | 0.12 | 0.01 | 99 | 1013.0 |
| 20260508084619 | 40 | 360 | 0.0 | 0.0 | 0.00 | 0.11 | 0.00 | 99 | 1013.0 |
| 20260508084521 | 40 | 360 | 0.0 | 0.0 | 0.00 | 0.11 | 0.00 | 99 | 1013.0 |
| 20260508083522 | 40 | 360 | 0.0 | 0.0 | 0.00 | 0.11 | 0.00 | 99 | 1013.0 |
| 20260508080521 | 40 | 360 | 0.0 | 0.0 | 0.00 | 0.11 | 0.00 | 99 | 1013.0 |
| 20260508075522 | 40 | 360 | 0.0 | 0.0 | 0.00 | 0.11 | 0.00 | 99 | 1013.0 |
| 20260508074521 | 41 | 360 | 0.0 | 0.0 | 0.00 | 0.11 | 0.00 | 99 | 1013.0 |
| 20260508072622 | 41 | 360 | 0.0 | 0.0 | 0.00 | 0.11 | 0.00 | 99 | 1013.0 |
| 20260508071621 | 41 | 360 | 0.0 | 0.0 | 0.00 | 0.11 | 0.00 | 99 | 1013.0 |
| 20260508070621 | 41 | 360 | 1.0 | 2.0 | 0.00 | 0.11 | 0.00 | 99 | 1013.1 |
| 20260508065720 | 42 | 360 | 0.0 | 0.0 | 0.00 | 0.11 | 0.00 | 99 | 1013.3 |
| 20260508063820 | 43 | 270 | 0.0 | 0.0 | 0.00 | 0.11 | 0.00 | 99 | 1013.4 |
| 20260508062821 | 42 | 270 | 0.0 | 0.0 | 0.00 | 0.11 | 0.00 | 99 | 1013.4 |
| 20260508061821 | 42 | 270 | 0.0 | 0.0 | 0.00 | 0.11 | 0.00 | 98 | 1013.4 |
| 20260508060822 | 42 | 270 | 0.0 | 0.0 | 0.00 | 0.11 | 0.00 | 98 | 1013.4 |
| 20260508060720 | 42 | 270 | 0.0 | 0.0 | 0.00 | 0.11 | 0.00 | 98 | 1013.4 |
| 20260508055720 | 41 | 270 | 0.0 | 0.0 | 0.00 | 0.11 | 0.00 | 97 | 1013.4 |
| 20260508054819 | 42 | 270 | 0.0 | 0.0 | 0.00 | 0.11 | 0.00 | 98 | 1013.4 |
| 20260508053822 | 42 | 315 | 0.0 | 0.0 | 0.00 | 0.11 | 0.00 | 98 | 1013.4 |
| 20260508053722 | 42 | 315 | 0.0 | 0.0 | 0.00 | 0.11 | 0.00 | 98 | 1013.6 |
| 20260508052621 | 43 | 315 | 0.0 | 0.0 | 0.00 | 0.11 | 0.00 | 98 | 1013.7 |
| 20260508051621 | 43 | 360 | 0.0 | 0.0 | 0.00 | 0.11 | 0.00 | 98 | 1013.6 |
| 20260508050620 | 43 | 360 | 0.0 | 0.0 | 0.00 | 0.11 | 0.00 | 98 | 1013.4 |
| 20260508045621 | 43 | 360 | 0.0 | 0.0 | 0.00 | 0.11 | 0.00 | 98 | 1013.4 |
| 20260508044621 | 43 | 45 | 0.0 | 0.0 | 0.00 | 0.11 | 0.00 | 98 | 1013.6 |
| 20260508043621 | 43 | 45 | 0.0 | 0.0 | 0.00 | 0.11 | 0.00 | 98 | 1013.4 |
| 20260508041622 | 43 | 112 | 0.0 | 1.0 | 0.00 | 0.11 | 0.00 | 98 | 1013.4 |
| 20260508040621 | 43 | 112 | 0.0 | 1.0 | 0.00 | 0.11 | 0.00 | 97 | 1013.4 |
| 20260508035632 | 43 | 112 | 0.0 | 0.0 | 0.00 | 0.11 | 0.11 | 97 | 1013.4 |
| 20260508034632 | 42 | 112 | 0.0 | 0.0 | 0.00 | 0.11 | 0.11 | 96 | 1013.7 |